This is the latest recevied weather packets stored in our database for station/object W9WRP. If no packets are shown the sender has not sent any weather packets the latest 10 day(s).
| Time | Temp. | Humidity | Pressure | Rain* | Wind** | Luminosity | Snow |
|---|---|---|---|---|---|---|---|
| 1787369266 | 38.89° C | 19% | 1015.1 hPa | 0 mm | - | 0 W/m² | - |
| 1787368961 | 38.89° C | 19% | 1014.8 hPa | 0 mm | - | 0 W/m² | - |
| 1787368660 | 38.89° C | 19% | 1014.9 hPa | 0 mm | - | 0 W/m² | - |
| 1787368355 | 38.89° C | 19% | 1014.9 hPa | 0 mm | - | 0 W/m² | - |
| 1787368051 | 39.44° C | 19% | 1014.7 hPa | 0 mm | - | 0 W/m² | - |
| 1787367747 | 39.44° C | 19% | 1014.6 hPa | 0 mm | - | 0 W/m² | - |
| 1787367447 | 39.44° C | 18% | 1014.4 hPa | 0 mm | - | 0 W/m² | - |
| 1787367142 | 39.44° C | 18% | 1014.3 hPa | 0 mm | - | 0 W/m² | - |
| 1787366841 | 39.44° C | 19% | 1014.3 hPa | 0 mm | - | 0 W/m² | - |
| 1787366536 | 39.44° C | 18% | 1014.2 hPa | 0 mm | - | 0 W/m² | - |
| 1787366231 | 40° C | 18% | 1014.2 hPa | 0 mm | - | 0 W/m² | - |
| 1787365927 | 40° C | 18% | 1013.9 hPa | 0 mm | - | 0 W/m² | - |
| 1787365622 | 40.56° C | 18% | 1014 hPa | 0 mm | - | 0 W/m² | - |
| 1787365317 | 40.56° C | 18% | 1013.9 hPa | 0 mm | - | 0 W/m² | - |
| 1787365013 | 40.56° C | 18% | 1013.9 hPa | 0 mm | - | 1 W/m² | - |
| 1787364709 | 40.56° C | 18% | 1013.8 hPa | 0 mm | - | 2 W/m² | - |
| 1787364404 | 40.56° C | 18% | 1013.8 hPa | 0 mm | - | 5 W/m² | - |
| 1787364100 | 41.11° C | 18% | 1013.7 hPa | 0 mm | - | 8 W/m² | - |
| 1787363799 | 41.11° C | 18% | 1013.7 hPa | 0 mm | - | 13 W/m² | - |
| 1787363494 | 41.11° C | 18% | 1013.7 hPa | 0 mm | - | 19 W/m² | - |
| 1787363193 | 41.11° C | 17% | 1013.5 hPa | 0 mm | - | 25 W/m² | - |
| 1787362889 | 41.67° C | 17% | 1013.7 hPa | 0 mm | - | 29 W/m² | - |
| 1787362584 | 41.67° C | 17% | 1013.5 hPa | 0 mm | - | 33 W/m² | - |
| 1787362279 | 41.67° C | 17% | 1013.7 hPa | 0 mm | - | 35 W/m² | - |
| 1787361978 | 41.67° C | 16% | 1013.7 hPa | 0 mm | - | 39 W/m² | - |
* Rain latest hour (hover to see other rain measurements)
** Current wind speed in m/s (hover to see current wind gust speed)